FW5642 Weather Reports


Display with metric or nautical units.
time (UTC)temp
F
wind
direction
speed
MPH
gust
MPH
rain 1hr
in
rain 24hr
in
rain mn
in
humidity
%
barometer
mb
20260906140033 54 90 0.0 0.0 0.03 0.04 0.03 93 1017.9
20260906134608 54 90 0.0 0.0 0.03 0.03 0.02 93 1017.7
20260906133034 54 90 0.0 0.0 0.02 0.02 0.02 92 1017.5
20260906131607 54 111 0.0 0.0 0.02 0.02 0.01 92 1017.5
20260906130032 54 107 0.0 0.0 0.01 0.01 0.00 92 1017.5
20260906124533 54 90 0.0 0.0 0.00 0.00 0.00 92 1017.5
20260906123031 54 90 0.0 0.0 0.00 0.00 0.00 92 1017.5
20260906120033 55 90 0.0 0.0 0.00 0.00 0.00 92 1017.7
20260906113033 55 112 0.0 0.0 0.00 0.00 0.00 91 1017.6
20260906111532 54 112 0.0 0.0 0.00 0.00 0.00 91 1017.7
20260906110036 54 112 0.0 0.0 0.00 0.00 0.00 90 1017.7
20260906104641 54 112 0.0 0.0 0.00 0.00 0.00 90 1017.7
20260906103029 54 112 0.0 0.0 0.00 0.00 0.00 89 1017.7
20260906101533 55 112 0.0 0.0 0.00 0.00 0.00 89 1017.9
20260906100034 55 108 0.0 0.0 0.00 0.00 0.00 88 1018.0
20260906094536 55 77 0.0 0.0 0.00 0.00 0.00 87 1018.1
20260906093035 56 34 0.0 0.0 0.00 0.00 0.00 87 1018.1
20260906090037 56 176 0.0 4.0 0.00 0.00 0.00 84 1017.9
20260906083034 56 115 1.0 7.0 0.00 0.00 0.00 85 1017.9
20260906080034 56 112 0.0 0.0 0.00 0.00 0.00 84 1017.8
20260906074532 56 95 0.0 0.0 0.00 0.00 0.00 84 1017.9
20260906073032 56 90 0.0 0.0 0.00 0.00 0.00 83 1017.9
20260906071531 56 90 0.0 0.0 0.00 0.00 0.00 82 1018.0
20260906070143 56 90 0.0 0.0 0.00 0.00 0.00 81 1018.1
20260906064606 56 69 0.0 0.0 0.00 0.00 0.00 80 1018.1
20260906061535 56 353 0.0 3.0 0.00 0.00 0.00 80 1018.0
20260906054536 55 224 0.0 0.0 0.00 0.00 0.00 80 1018.2
20260906051648 56 294 0.0 0.0 0.00 0.00 0.00 78 1018.3
20260906050031 57 258 0.0 3.0 0.00 0.00 0.00 75 1018.3
20260906044534 58 231 0.0 3.0 0.00 0.00 0.00 74 1018.3
20260906043035 58 237 0.0 3.0 0.00 0.00 0.00 74 1018.2
20260906040034 59 210 0.0 0.0 0.00 0.00 0.00 72 1018.2
20260906033037 60 242 0.0 4.0 0.00 0.00 0.00 69 1017.9
20260906031534 60 221 0.0 7.0 0.00 0.00 0.00 68 1017.8
20260906030034 61 217 0.0 4.0 0.00 0.00 0.00 67 1017.7
20260906024533 62 230 1.0 4.0 0.00 0.00 0.00 66 1017.6
20260906021534 63 247 1.0 6.0 0.00 0.00 0.00 64 1017.5
20260906020109 64 260 2.0 5.0 0.00 0.00 0.00 61 1017.4
20260906014534 65 263 2.0 6.0 0.00 0.00 0.00 58 1017.5
20260906013142 66 267 2.0 7.0 0.00 0.00 0.00 59 1017.5
20260906010031 66 266 2.0 8.0 0.00 0.00 0.00 59 1017.7
20260906004537 66 223 3.0 10.0 0.00 0.00 0.00 58 1017.8
20260906003037 67 254 5.0 13.0 0.00 0.00 0.00 55 1017.8
20260906001529 70 263 5.0 11.0 0.00 0.00 0.00 50 1017.7
20260906000031 71 283 4.0 11.0 0.00 0.00 0.00 49 1017.5
20260905234535 70 293 2.0 8.0 0.00 0.00 0.00 51 1017.3
20260905233034 70 315 2.0 8.0 0.00 0.00 0.00 50 1017.5
20260905231535 71 344 3.0 7.0 0.00 0.00 0.00 49 1017.5
20260905224606 71 355 3.0 8.0 0.00 0.00 0.00 49 1017.5
20260905223045 72 26 2.0 7.0 0.00 0.00 0.00 48 1017.7
20260905221537 72 12 3.0 9.0 0.00 0.00 0.00 49 1017.8
20260905220141 70 7 1.0 7.0 0.00 0.00 0.00 53 1017.9
20260905214535 71 27 1.0 9.0 0.00 0.00 0.00 54 1018.1
20260905213109 69 339 0.0 5.0 0.00 0.00 0.00 58 1018.2
20260905211609 69 323 1.0 5.0 0.00 0.00 0.00 58 1018.5
20260905203035 68 78 1.0 8.0 0.00 0.00 0.00 59 1018.8
20260905200030 67 21 3.0 8.0 0.00 0.00 0.00 58 1019.0
20260905194642 66 358 3.0 10.0 0.00 0.00 0.00 60 1019.2
20260905193035 66 35 2.0 8.0 0.00 0.00 0.00 61 1019.2
20260905191532 67 53 1.0 7.0 0.00 0.00 0.00 63 1019.5
20260905190034 66 47 1.0 5.0 0.00 0.00 0.00 65 1019.6
20260905184532 66 10 0.0 6.0 0.00 0.00 0.00 67 1019.8
20260905183043 66 318 0.0 4.0 0.00 0.00 0.00 70 1019.8
20260905181536 64 300 0.0 3.0 0.00 0.00 0.00 73 1020.1
20260905180034 63 13 0.0 3.0 0.00 0.00 0.00 74 1020.2
20260905174534 63 206 0.0 1.0 0.00 0.00 0.00 77 1020.2
20260905173031 61 111 0.0 2.0 0.00 0.00 0.00 80 1020.2
20260905171534 60 47 0.0 2.0 0.00 0.00 0.00 82 1020.3
20260905170034 59 359 0.0 3.0 0.00 0.00 0.00 84 1020.3
20260905164533 58 22 0.0 1.0 0.00 0.00 0.00 86 1020.3
20260905163034 58 61 0.0 0.0 0.00 0.00 0.00 89 1020.2
20260905161641 56 67 0.0 0.0 0.00 0.00 0.00 91 1020.3
20260905160035 55 65 0.0 0.0 0.00 0.00 0.00 93 1020.3
20260905154536 54 69 0.0 0.0 0.00 0.00 0.00 94 1020.3
20260905153108 54 112 0.0 0.0 0.00 0.00 0.00 94 1020.2
20260905151535 53 112 0.0 0.0 0.00 0.00 0.00 94 1020.2
20260905144530 52 112 0.0 0.0 0.00 0.00 0.00 94 1020.1
20260905143030 52 112 0.0 0.0 0.00 0.00 0.00 94 1020.1
20260905141533 51 112 0.0 0.0 0.00 0.00 0.00 94 1020.0